Weather reports worldwide

Advertisment
La Coruna, Spain (8001): temperature & dewpoint: 11.06.2019 05:00:00 - 17.06.2019 05:00:00 (CEST)La Coruna, Spain (8001): wind speed: 11.06.2019 05:00:00 - 17.06.2019 05:00:00 (CEST)La Coruna, Spain (8001): wind direction: 11.06.2019 05:00:00 - 17.06.2019 05:00:00 (CEST)La Coruna, Spain (8001): reduced air pressure: 11.06.2019 05:00:00 - 17.06.2019 05:00:00 (CEST)La Coruna, Spain (8001): visibility: 11.06.2019 05:00:00 - 17.06.2019 05:00:00 (CEST)La Coruna, Spain (8001): precipitation: 11.06.2019 05:00:00 - 17.06.2019 05:00:00 (CEST)
Date & Time tt [°C] td [°C] ff [km/h] ff [kn] dd ppp [hPa] vv [km] rr [mm]
17.06.2019 05:00:00 13,9 12,3 4 2 E 1018,0 15 -
17.06.2019 04:00:00 14,2 12,2 2 1 W 1018,7 15 0,0
17.06.2019 03:00:00 14,5 12,4 4 2 N 1018,7 16 0,0
17.06.2019 02:00:00 14,8 12,3 5 3 NNW 1019,3 25 -
17.06.2019 01:00:00 15,0 12,3 4 2 NW 1019,4 18 0,0
17.06.2019 00:00:00 15,3 12,8 5 3 NNE 1019,7 15 0,0
16.06.2019 23:00:00 15,6 12,9 11 6 N 1019,9 25 -
16.06.2019 22:00:00 15,8 12,2 18 10 N 1019,8 20 0,0
16.06.2019 21:00:00 16,0 12,0 15 8 NNW 1019,9 20 0,0
16.06.2019 20:00:00 16,5 11,8 13 7 N 1019,9 20 -
16.06.2019 19:00:00 17,2 11,7 15 8 N 1019,9 20 0,0
16.06.2019 18:00:00 17,6 10,9 15 8 N 1020,2 20 0,0
16.06.2019 17:00:00 18,1 12,3 16 9 NNW 1020,2 20 -
16.06.2019 16:00:00 17,9 11,9 16 9 NNW 1020,4 20 0,0
16.06.2019 15:00:00 18,2 12,4 15 8 N 1020,5 20 0,0
16.06.2019 14:00:00 18,0 11,8 16 9 NNW 1020,7 25 -
16.06.2019 13:00:00 17,9 9,8 13 7 NNW 1020,9 20 0,0
16.06.2019 12:00:00 17,7 8,8 11 6 NNW 1021,3 20 0,0
16.06.2019 11:00:00 17,7 10,6 8 4 ENE 1021,1 25 -
16.06.2019 10:00:00 17,0 11,5 4 2 E 1021,2 19 0,0
16.06.2019 09:00:00 15,3 10,7 4 2 SE 1021,1 17 0,0
16.06.2019 08:00:00 13,4 10,4 2 1 SE 1021,2 25 -
16.06.2019 07:00:00 12,0 10,1 0 0 N 1021,1 15 0,0
16.06.2019 06:00:00 12,7 10,4 4 2 S 1021,1 17 0,0
16.06.2019 05:00:00 13,1 10,8 8 4 S 1021,4 15 -
16.06.2019 04:00:00 13,3 9,9 0 0 N 1021,7 20 0,0
16.06.2019 03:00:00 13,9 9,9 4 2 WSW 1022,1 20 0,0
16.06.2019 02:00:00 14,3 10,3 4 2 WSW 1022,6 15 -
16.06.2019 01:00:00 14,9 11,5 8 4 WNW 1022,8 19 0,0
16.06.2019 00:00:00 15,3 12,1 4 2 WSW 1022,7 20 0,0
15.06.2019 23:00:00 15,5 11,7 9 5 W 1022,5 20 -
15.06.2019 22:00:00 15,8 11,4 8 4 W 1022,1 20 0,0
15.06.2019 21:00:00 15,8 12,2 15 8 W 1022,0 20 0,0
15.06.2019 20:00:00 16,5 12,1 18 10 W 1022,0 20 -
15.06.2019 19:00:00 17,0 11,7 22 12 WNW 1022,1 20 0,0
15.06.2019 18:00:00 17,0 11,0 22 12 WNW 1022,4 20 0,0
15.06.2019 17:00:00 17,0 11,5 18 10 W 1022,4 20 -
15.06.2019 16:00:00 17,9 11,9 26 14 WNW 1022,1 20 0,0
15.06.2019 15:00:00 18,1 10,5 16 9 W 1022,2 20 0,0
15.06.2019 14:00:00 17,7 10,8 16 9 WNW 1022,2 25 -
15.06.2019 13:00:00 16,6 9,5 15 8 W 1022,0 20 0,0
15.06.2019 12:00:00 17,2 9,1 9 5 W 1021,6 20 0,0
15.06.2019 11:00:00 16,9 9,3 13 7 SW 1021,4 25 -
15.06.2019 10:00:00 16,3 9,2 13 7 SW 1021,0 19 0,0
15.06.2019 09:00:00 14,2 9,4 11 6 SW 1020,6 20 0,0
15.06.2019 08:00:00 13,7 9,1 16 9 SW 1020,3 20 -
15.06.2019 07:00:00 12,8 9,1 13 7 SW 1020,0 12 0,0
15.06.2019 06:00:00 13,0 9,4 11 6 SSW 1019,4 20 0,0
15.06.2019 05:00:00 13,3 10,3 8 4 SSW 1019,2 15 -
15.06.2019 04:00:00 13,7 11,0 9 5 SSW 1019,4 20 0,0
15.06.2019 03:00:00 13,8 11,1 9 5 SW 1019,5 20 0,0
15.06.2019 02:00:00 14,0 11,7 11 6 SSW 1019,4 15 -
15.06.2019 01:00:00 13,8 11,0 5 3 SW 1019,3 20 0,0
15.06.2019 00:00:00 14,3 11,6 11 6 SSW 1018,9 20 0,0
14.06.2019 23:00:00 14,5 11,3 16 9 W 1018,4 25 -
14.06.2019 22:00:00 15,4 11,4 15 8 W 1017,7 19 0,0
14.06.2019 21:00:00 15,9 11,1 9 5 W 1017,4 20 0,0
14.06.2019 20:00:00 15,9 11,1 13 7 W 1017,1 20 -
14.06.2019 19:00:00 16,8 11,3 13 7 W 1016,7 20 0,0
14.06.2019 18:00:00 17,9 10,8 16 9 W 1016,4 20 0,0
14.06.2019 17:00:00 17,9 10,8 21 11 W 1016,0 20 -
14.06.2019 16:00:00 18,5 11,1 16 9 W 1015,8 20 0,0
14.06.2019 15:00:00 17,9 10,3 15 8 WNW 1015,6 20 0,0
14.06.2019 14:00:00 17,3 10,7 11 6 WNW 1015,5 25 -
14.06.2019 13:00:00 17,0 10,6 11 6 NNW 1015,4 20 0,0
14.06.2019 12:00:00 17,0 9,9 11 6 N 1015,2 20 0,0
14.06.2019 11:00:00 16,6 9,3 9 5 NE 1015,1 25 -
14.06.2019 10:00:00 15,9 9,3 5 3 E 1014,9 19 0,0
14.06.2019 09:00:00 13,7 8,7 4 2 ESE 1014,6 19 0,0
14.06.2019 08:00:00 11,5 8,0 4 2 ESE 1014,8 12 -
14.06.2019 07:00:00 10,3 7,7 4 2 SE 1014,4 20 0,0
14.06.2019 06:00:00 10,7 7,9 0 0 N 1014,0 20 0,0
14.06.2019 05:00:00 11,4 8,3 2 1 S 1014,2 15 -
14.06.2019 04:00:00 11,9 8,6 4 2 S 1014,2 20 0,0
14.06.2019 03:00:00 12,7 8,6 0 0 N 1014,2 20 0,0
14.06.2019 02:00:00 13,0 8,9 5 3 S 1014,6 18 -
14.06.2019 01:00:00 13,3 8,8 4 2 ENE 1014,9 20 0,0
14.06.2019 00:00:00 13,6 8,8 4 2 NE 1015,1 20 0,0
13.06.2019 23:00:00 13,9 8,7 4 2 WNW 1015,0 25 -
13.06.2019 22:00:00 14,2 8,4 8 4 NW 1014,6 20 0,0
13.06.2019 21:00:00 14,6 8,8 9 5 NW 1014,4 20 0,0
13.06.2019 20:00:00 15,1 8,6 8 4 N 1014,2 20 -
13.06.2019 19:00:00 15,5 8,9 9 5 NW 1014,1 20 0,0
13.06.2019 18:00:00 15,9 8,6 11 6 NW 1013,9 20 0,0
13.06.2019 17:00:00 16,2 8,7 11 6 NW 1013,7 20 -
13.06.2019 16:00:00 16,1 9,3 13 7 NNW 1013,6 20 0,0
13.06.2019 15:00:00 16,3 9,0 13 7 NW 1013,6 20 0,0
13.06.2019 14:00:00 16,5 8,2 11 6 NW 1013,6 25 -
13.06.2019 13:00:00 15,7 9,4 13 7 N 1013,6 20 0,0
13.06.2019 12:00:00 14,8 9,4 5 3 WNW 1013,7 20 0,0
13.06.2019 11:00:00 15,4 9,3 5 3 NNW 1013,5 20 -
13.06.2019 10:00:00 15,7 10,2 5 3 NE 1013,4 18 0,0
13.06.2019 09:00:00 14,1 9,1 4 2 ENE 1013,2 19 0,0
13.06.2019 08:00:00 11,9 8,4 2 1 WNW 1013,3 12 -
13.06.2019 07:00:00 11,3 8,0 2 1 E 1013,2 19 0,0
13.06.2019 06:00:00 11,9 8,2 0 0 N 1013,5 20 0,0
13.06.2019 05:00:00 12,4 8,3 2 1 SSW 1013,5 25 -
13.06.2019 04:00:00 12,4 8,3 4 2 SE 1013,7 20 0,0
13.06.2019 03:00:00 12,8 8,9 2 1 E 1013,8 20 0,0
13.06.2019 02:00:00 13,2 8,3 5 3 NE 1014,3 25 -
13.06.2019 01:00:00 13,1 8,0 8 4 NNW 1014,6 20 0,0
13.06.2019 00:00:00 13,4 7,8 5 3 N 1015,2 20 0,0
12.06.2019 23:00:00 13,6 7,6 8 4 NNW 1015,4 25 -
12.06.2019 22:00:00 14,0 8,0 9 5 NNW 1015,2 20 0,0
12.06.2019 21:00:00 14,4 8,1 8 4 WNW 1015,4 20 0,0
12.06.2019 20:00:00 14,7 8,4 11 6 NNW 1015,4 20 -
12.06.2019 19:00:00 15,3 8,5 9 5 NNW 1015,7 20 0,0
12.06.2019 18:00:00 15,8 8,0 13 7 NW 1016,0 20 0,0
12.06.2019 17:00:00 15,9 8,6 15 8 NNW 1016,4 20 -
12.06.2019 16:00:00 15,9 8,9 15 8 NW 1016,6 20 0,0
12.06.2019 15:00:00 16,3 8,3 15 8 NW 1016,8 20 0,0
12.06.2019 14:00:00 16,9 9,6 15 8 NW 1017,2 25 -
12.06.2019 13:00:00 17,4 9,8 15 8 W 1017,4 20 0,0
12.06.2019 12:00:00 15,6 7,9 13 7 NW 1017,8 20 0,0
12.06.2019 11:00:00 14,9 8,4 9 5 W 1017,6 25 -
12.06.2019 10:00:00 15,4 7,7 11 6 NW 1017,7 20 0,0
12.06.2019 09:00:00 14,7 6,8 9 5 NW 1017,8 19 0,0
12.06.2019 08:00:00 13,0 7,9 9 5 NW 1017,9 22 -
12.06.2019 07:00:00 12,8 8,7 11 6 WNW 1017,9 19 0,0
12.06.2019 06:00:00 13,0 8,1 11 6 NW 1018,0 20 0,0
12.06.2019 05:00:00 13,2 8,1 9 5 NW 1018,4 25 -
12.06.2019 04:00:00 13,2 7,8 11 6 NNW 1019,1 20 0,2
12.06.2019 03:00:00 13,6 9,2 13 7 WNW 1019,6 20 0,0
12.06.2019 02:00:00 13,6 9,4 11 6 NW 1020,3 25 -
12.06.2019 01:00:00 13,8 9,4 11 6 NNW 1020,7 19 0,0
12.06.2019 00:00:00 13,9 8,7 16 9 NNW 1020,9 20 0,0
11.06.2019 23:00:00 14,1 9,7 15 8 NW 1021,0 25 -
11.06.2019 22:00:00 14,3 9,7 15 8 NW 1021,0 20 0,0
11.06.2019 21:00:00 14,5 9,7 16 9 NNW 1021,5 20 0,0
11.06.2019 20:00:00 15,4 10,0 15 8 WNW 1021,6 19 -
11.06.2019 19:00:00 15,4 9,3 16 9 NNW 1021,8 20 0,0
11.06.2019 18:00:00 16,1 9,3 16 9 N 1021,8 20 0,0
11.06.2019 17:00:00 16,2 9,6 18 10 N 1022,0 20 -
11.06.2019 16:00:00 16,4 9,3 16 9 N 1022,2 20 0,0
11.06.2019 15:00:00 15,4 9,1 18 10 N 1022,2 20 0,0
11.06.2019 14:00:00 16,2 9,1 22 12 N 1022,5 22 -
11.06.2019 13:00:00 16,0 8,7 22 12 N 1022,3 20 0,0
11.06.2019 12:00:00 15,3 8,8 22 12 N 1022,1 20 0,0
11.06.2019 11:00:00 14,5 7,8 21 11 N 1021,6 22 -
11.06.2019 10:00:00 14,4 8,8 21 11 N 1021,3 20 0,0
11.06.2019 09:00:00 13,7 7,5 24 13 N 1021,0 20 0,0
11.06.2019 08:00:00 13,7 7,9 18 10 N 1020,6 20 -
11.06.2019 07:00:00 13,0 8,1 18 10 N 1020,1 20 0,0
11.06.2019 06:00:00 13,0 8,9 16 9 N 1019,8 20 0,0
11.06.2019 05:00:00 12,5 9,9 22 12 N 1020,1 18 -

tt = temperature
td = dewpoint
ff = wind speed
dd = wind direction
ppp = reduced air pressure
vv = visibility
rr = precipitation

Next stations